Weather Roundup
Issued by NWS Springfield, MO

Home | Current Version | Previous Version | Text Only | Print | Product List | Glossary On
Versions: 1 2 3 4 5 6 7 8 9 10 11 12 13 14 15 16 17 18 19 20 21 22 23 24 25 26 27 28 29 30 31 32 33 34 35 36 37 38 39 40 41 42 43 44 45 46 47 48 49 50
000
NZUS99 KSGF 282210
HRRSGF

HOURLY WEATHER
NATIONAL WEATHER SERVICE SPRINGFIELD MO
500 PM CDT FRI AUG 28 2015

......SGF CWA......

CITY           SKY/WX    TMP DP  RH WIND       PRES   REMARKS
SPRINGFIELD    CLOUDY    78  63  59 S13       29.99F
JOPLIN         CLOUDY    78  67  68 S13       29.95F
WEST PLAINS    PTSUNNY   78  59  51 SE5       30.05F
ROLLA          PTSUNNY   77  61  57 SE8       30.01F
OSAGE BEACH    CLOUDY    75  63  64 SW8       29.98F
BRANSON        PTSUNNY   81  63  54 SE8       30.02F

......SURROUNDING SGF CWA......

CITY           SKY/WX    TMP DP  RH WIND       PRES   REMARKS
CHANUTE        PTSUNNY   75  68  78 S15G23    29.92F
PARSONS        PTSUNNY   77  70  79 S8        29.94F
COFFEYVILLE    LGT RAIN  75  70  84 S7        29.93F
EMPORIA        MOSUNNY   83  68  60 S20G28    29.87F
GROVE OK       PTSUNNY   86  68  54 SE13      29.96F
ROGERS AR      PTSUNNY   81  65  58 SE13      30.01F
SILOAM SPRINGS MOSUNNY   81  64  57 S9        29.98S
NEAR YELLVILLE MOSUNNY   82  57  42 SE6       29.99F

......KANSAS AND MISSOURI......

CITY           SKY/WX    TMP DP  RH WIND       PRES   REMARKS
KANSAS CTY INT MOSUNNY   79  64  60 S17       29.90S
DOWNTOWN KC    MOSUNNY   81  65  58 SW17G26   29.89S
COLUMBIA       CLOUDY    76  64  66 SE10      29.98F
SEDALIA        CLOUDY    74  68  81 S9        29.97F
ST JOSEPH      CLOUDY    79  69  71 S13       29.86F
ST LOUIS       PTSUNNY   82  59  45 SE15      30.03F
SPIRIT OF STL  PTSUNNY   79  63  57 SE8       30.01F
KIRKSVILLE     CLOUDY    73  63  70 SE17G23   29.95F
WICHITA        MOSUNNY   90  70  51 S9        29.87F HX  95
TOPEKA         MOSUNNY   80  68  66 S12       29.88R
OLATHE         CLOUDY    74  66  76 S15G23    29.91S

......TENNESSEE......

CITY           SKY/WX    TMP DP  RH WIND       PRES   REMARKS
MEMPHIS        MOSUNNY   89  62  40 S6        30.00F
NASHVILLE      MOSUNNY   88  57  34 SE9       30.05S

......ARKANSAS.......

CITY           SKY/WX    TMP DP  RH WIND       PRES   REMARKS
FAYETTEVILLE   MOSUNNY   80  65  59 SE9       30.00F
FT SMITH       MOSUNNY   86  62  44 SE10      29.95F
LITTLE ROCK    MOSUNNY   86  57  37 E6        30.00F

......OKLAHOMA.......

CITY           SKY/WX    TMP DP  RH WIND       PRES   REMARKS
TULSA          CLOUDY    81  68  64 S12       29.91S
PONCA CITY     MOSUNNY   82  68  62 S15G21    29.90F
MCALESTER      PTSUNNY   86  67  52 S5        29.96S
OKLAHOMA CITY  CLOUDY    83  69  62 S12       29.93F

......IOWA............

CITY           SKY/WX    TMP DP  RH WIND       PRES   REMARKS
DES MOINES     LGT RAIN  76  66  71 S14       29.84S

......ILLINOIS........

CITY           SKY/WX    TMP DP  RH WIND       PRES   REMARKS
QUINCY         CLOUDY    74  63  68 S12       29.99F
CHICAGO        CLOUDY    72  60  66 SE6       30.07F



USA.gov is the U.S. government's official web portal to all federal, state and local government web resources and services.